User: anonymous   Login
Location: Caltech
(34.1382°N, 118.1253°W)
Time: 18:14:04
(UTC-07:00)
Language:

Cosmos 2322 - Orbit

View from above orbital plane
View from above orbital plane
View from above satellite
View from above satellite

Ground track
Ground track

The orbit data is extracted from the following two-line orbital elements,

1 23704U 95058A   17144.25384469 +.00000295 +00000-0 +18223-3 0  9996
2 23704 070.9847 093.9554 0008747 137.8726 222.3069 14.13370988112257
Epoch (UTC): 24 May 2017 06:05:32
Eccentricity: 0.0008747
inclination: 70.9847°
perigee height: 841 km
apogee height: 854 km
right ascension of ascending node: 93.9554°
argument of perigee: 137.8726°
revolutions per day: 14.13370988
mean anomaly at epoch: 222.3069°
orbit number at epoch: 11225

The dashed part of the orbit path shows where the satellite is in the earth's shadow,  

DLR